Kuantan, Malaysia

4:46 PM +08 on October 21, 2019 (GMT +0800)
Kuantan

Weather History for WMKD - August, 2019

Change the Weather History Date:

Tuesday, August 13, 2019

  Actual Average (WUND) Record (WUND)
Temperature  
Mean Temperature 86 °F -  
Max Temperature 94 °F 90 °F - (-1)
Min Temperature 77 °F 72 °F - (-1)
Cooling Degree Days 20    
Growing Degree Days 36 (Base 50)    
Moisture  
Dew Point 78 °F    
Average Humidity 81    
Maximum Humidity 94    
Minimum Humidity 57    
Precipitation  
Precipitation 0.00 in 0.26 in - ()
Sea Level Pressure  
Sea Level Pressure 29.82 in    
Wind  
Wind Speed 2 mph ()    
Max Wind Speed 8 mph    
Max Gust Speed -    
Visibility 4.5 miles    
Events      
Averages and records for this station are not official NWS values.
T = Trace of Precipitation, MM = Missing Value Source: Averaged Metar Reports

Daily Weather History Graph

Daily Weather History Graph

Search for Another Location

Airport or City:

Astronomy

Aug. 13, 2019 Rise Set
Actual Time 7:04 AM +08 7:19 PM +08
Civil Twilight 6:43 AM +08 7:40 PM +08
Nautical Twilight 6:18 AM +08 8:05 PM +08
Astronomical Twilight 5:53 AM +08 8:30 PM +08
Moon 5:44 PM +08 (8/13) 5:06 AM +08 (8/13)
Length of Visible Light 12h 57m
Length of Day
12h 14m
Waxing Gibbous, 95% of the Moon is Illuminated
Aug 13
Waxing Gibbous
Aug 15
Full
Aug 23
Last Quarter
Aug 30
New
Sep 6
First Quarter

Hourly Weather History & Observations

Time (+08) Temp. Heat Index Dew Point Humidity Pressure Visibility Wind Dir Wind Speed Gust Speed Precip Events Conditions
12:00 AM 80.6 °F 86.2 °F 75.2 °F 84% 29.83 in 6.2 mi Calm Calm - N/A   Mostly Cloudy
1:00 AM 78.8 °F - 75.2 °F 89% 29.83 in 5.6 mi Variable 2.3 mph - N/A   Mostly Cloudy
2:00 AM 80 °F - 76 °F 84% 29.83 in 5 mi SSW 2.3 mph - -   Haze
2:00 AM 80.6 °F 87.1 °F 77.0 °F 89% 29.83 in 5.0 mi Variable 2.3 mph - N/A   Mostly Cloudy
3:00 AM 78.8 °F - 77.0 °F 94% 29.80 in 3.7 mi Variable 2.3 mph - N/A   Mostly Cloudy
4:00 AM 78.8 °F - 77.0 °F 94% 29.80 in 3.7 mi Variable 2.3 mph - N/A   Mostly Cloudy
5:00 AM 79 °F - 76 °F 89% 29.80 in 5 mi Calm Calm - -   Haze
5:00 AM 78.8 °F - 77.0 °F 94% 29.80 in 5.0 mi Calm Calm - N/A   Mostly Cloudy
6:00 AM 78.8 °F - 75.2 °F 89% 29.80 in 4.3 mi Calm Calm - N/A   Mostly Cloudy
7:00 AM 78.8 °F - 75.2 °F 89% 29.83 in 3.7 mi Calm Calm - N/A   Mostly Cloudy
8:00 AM 79 °F - 76 °F 87% 29.84 in 4 mi Calm Calm - -   Haze
8:00 AM 78.8 °F - 75.2 °F 89% 29.83 in 3.7 mi Calm Calm - N/A   Mostly Cloudy
9:00 AM 82.4 °F 90.9 °F 77.0 °F 84% 29.86 in 2.5 mi Variable 2.3 mph - N/A   Haze
10:00 AM 84.2 °F 96.1 °F 78.8 °F 84% 29.86 in 2.5 mi Variable 3.5 mph - N/A   Haze
11:00 AM 87 °F - 78 °F 70% 29.88 in 4 mi South 3.5 mph - -   Haze
11:00 AM 87.8 °F 102.5 °F 78.8 °F 75% 29.86 in 3.7 mi Variable 3.5 mph - N/A   Mostly Cloudy
12:00 PM 89.6 °F 102.2 °F 77.0 °F 66% 29.86 in 3.7 mi Variable 3.5 mph - N/A   Mostly Cloudy
1:00 PM 91.4 °F 107.2 °F 78.8 °F 66% 29.83 in 3.7 mi Variable 4.6 mph - N/A   Mostly Cloudy
2:00 PM 92 °F - 78 °F 57% 29.81 in 5 mi SE 3.5 mph - -   Haze
2:00 PM 93.2 °F 110.2 °F 78.8 °F 63% 29.80 in 5.0 mi Variable 3.5 mph - N/A   Mostly Cloudy
3:00 PM 93.2 °F 117.1 °F 82.4 °F 71% 29.77 in 6.2 mi Variable 4.6 mph - N/A   Mostly Cloudy
4:00 PM 91.4 °F 111.0 °F 80.6 °F 71% 29.74 in 6.2 mi Variable 8.1 mph - N/A   Mostly Cloudy
5:00 PM 90 °F - 80 °F 67% 29.75 in 6 mi East 8.1 mph - -   Haze
5:00 PM 89.6 °F 108.2 °F 80.6 °F 75% 29.74 in 5.6 mi East 8.1 mph - N/A   Mostly Cloudy
6:00 PM 87.8 °F 104.9 °F 80.6 °F 79% 29.74 in 5.0 mi Variable 4.6 mph - N/A   Mostly Cloudy
7:00 PM 86.0 °F 99.3 °F 78.8 °F 79% 29.77 in 4.3 mi Variable 3.5 mph - N/A   Mostly Cloudy
8:00 PM 85 °F - 79 °F 79% 29.82 in 4 mi East 2.3 mph - -   Haze
8:00 PM 84.2 °F 96.1 °F 78.8 °F 84% 29.80 in 4.3 mi Variable 2.3 mph - N/A   Mostly Cloudy
9:00 PM 84.2 °F 96.1 °F 78.8 °F 84% 29.83 in 4.3 mi Variable 2.3 mph - N/A   Mostly Cloudy
10:00 PM 84.2 °F 96.1 °F 78.8 °F 84% 29.86 in 4.3 mi Calm Calm - N/A   Mostly Cloudy
11:00 PM 83 °F - 79 °F 86% 29.87 in 4 mi Calm Calm - -   Haze
11:00 PM 82.4 °F 92.4 °F 78.8 °F 89% 29.86 in 4.3 mi Calm Calm - N/A   Mostly Cloudy